This is the latest recevied weather packets stored in our database for station/object KC5TIL. If no packets are shown the sender has not sent any weather packets the latest 10 day(s).
| Time | Temp. | Humidity | Pressure | Rain* | Wind** | Luminosity | Snow |
|---|---|---|---|---|---|---|---|
| 1788450926 | 29.44° C | 76% | 1014.9 hPa | 0 mm | - | 211 W/m² | - |
| 1788450622 | 29.44° C | 76% | 1014.7 hPa | 0 mm | - | 223 W/m² | - |
| 1788450318 | 28.89° C | 76% | 1014.6 hPa | 0 mm | - | 228 W/m² | - |
| 1788450014 | 29.44° C | 76% | 1014.7 hPa | 0 mm | - | 199 W/m² | - |
| 1788449709 | 28.89° C | 76% | 1014.6 hPa | 0 mm | - | 183 W/m² | - |
| 1788449405 | 28.89° C | 76% | 1014.6 hPa | 0 mm | - | 190 W/m² | - |
| 1788449100 | 28.89° C | 77% | 1014.7 hPa | 0 mm | - | 191 W/m² | - |
| 1788448797 | 28.89° C | 77% | 1014.6 hPa | 0 mm | - | 173 W/m² | - |
| 1788448490 | 28.33° C | 78% | 1014.6 hPa | 0 mm | - | 156 W/m² | - |
| 1788448186 | 28.33° C | 78% | 1014.8 hPa | 0 mm | - | 153 W/m² | - |
| 1788447879 | 28.33° C | 80% | 1014.7 hPa | 0 mm | - | 138 W/m² | - |
| 1788447574 | 27.78° C | 80% | 1014.9 hPa | 0 mm | - | 107 W/m² | - |
| 1788447270 | 27.78° C | 80% | 1014.8 hPa | 0 mm | - | 96 W/m² | - |
| 1788446964 | 27.78° C | 81% | 1015 hPa | 0 mm | - | 84 W/m² | - |
| 1788446664 | 27.78° C | 81% | 1014.9 hPa | 0 mm | - | 89 W/m² | - |
| 1788446360 | 27.78° C | 80% | 1014.9 hPa | 0 mm | - | 88 W/m² | - |
| 1788446056 | 27.78° C | 81% | 1014.9 hPa | 0 mm | - | 83 W/m² | - |
| 1788445751 | 27.78° C | 81% | 1014.9 hPa | 0 mm | - | 85 W/m² | - |
| 1788445447 | 27.78° C | 80% | 1014.7 hPa | 0 mm | - | 101 W/m² | - |
| 1788445142 | 27.22° C | 81% | 1014.8 hPa | 0 mm | - | 119 W/m² | - |
| 1788444833 | 27.22° C | 81% | 1014.8 hPa | 0 mm | - | 115 W/m² | - |
| 1788444528 | 27.22° C | 82% | 1014.8 hPa | 0 mm | - | 104 W/m² | - |
| 1788444223 | 26.67° C | 82% | 1014.8 hPa | 0 mm | - | 102 W/m² | - |
| 1788443918 | 26.67° C | 83% | 1014.8 hPa | 0 mm | - | 107 W/m² | - |
| 1788443613 | 26.67° C | 83% | 1014.9 hPa | 0 mm | - | 80 W/m² | - |
* Rain latest hour (hover to see other rain measurements)
** Current wind speed in m/s (hover to see current wind gust speed)